FW7718 Weather Reports


time (UTC)temp
C
wind
direction
speed
KPH
gust
KPH
rain 1hr
cm
rain 24hr
cm
rain mn
cm
humidity
%
barometer
mb
20260509135330 22 129 3.2 3.2 0.00 0.00 0.00 93 1011.7
20260509134827 22 95 1.6 3.2 0.00 0.00 0.00 94 1011.7
20260509134324 22 152 4.8 4.8 0.00 0.00 0.00 94 1011.8
20260509133820 22 116 1.6 3.2 0.00 0.00 0.00 94 1011.8
20260509133317 22 109 4.8 4.8 0.00 0.00 0.00 95 1011.8
20260509132816 21 105 3.2 4.8 0.00 0.00 0.00 95 1011.9
20260509132314 21 105 3.2 3.2 0.00 0.00 0.00 95 1011.6
20260509131811 21 108 4.8 4.8 0.00 0.00 0.00 95 1011.6
20260509131308 21 93 4.8 8.0 0.00 0.00 0.00 95 1011.7
20260509130804 21 109 3.2 3.2 0.00 0.00 0.00 96 1011.6
20260509130259 21 114 4.8 8.0 0.00 0.00 0.00 96 1011.8
20260509125756 21 97 4.8 4.8 0.00 0.00 0.00 96 1011.7
20260509125253 21 94 3.2 3.2 0.00 0.00 0.00 96 1011.8
20260509124750 20 93 1.6 1.6 0.00 0.00 0.00 96 1011.7
20260509124246 20 81 3.2 3.2 0.00 0.00 0.00 96 1011.6
20260509123744 20 80 4.8 8.0 0.00 0.00 0.00 96 1011.9
20260509123241 20 88 4.8 4.8 0.00 0.00 0.00 97 1011.7
20260509122737 20 90 4.8 4.8 0.00 0.00 0.00 96 1011.9
20260509122234 20 79 3.2 3.2 0.00 0.00 0.00 96 1011.9
20260509121730 20 87 1.6 1.6 0.00 0.00 0.00 96 1012.0
20260509121228 20 96 1.6 1.6 0.00 0.00 0.00 96 1011.9
20260509120726 20 97 1.6 1.6 0.00 0.00 0.00 96 1011.9
20260509120224 20 69 1.6 1.6 0.00 0.00 0.00 96 1011.8
20260509115721 20 67 0.0 0.0 0.00 0.00 0.00 96 1011.9
20260509115218 20 66 0.0 0.0 0.00 0.00 0.00 96 1011.7
20260509114717 20 66 0.0 1.6 0.00 0.00 0.00 96 1011.9
20260509114215 20 66 0.0 0.0 0.00 0.00 0.00 96 1011.5
20260509113713 20 66 0.0 1.6 0.00 0.00 0.00 96 1011.6
20260509113210 20 66 0.0 1.6 0.00 0.00 0.00 96 1011.5
20260509112706 20 66 0.0 0.0 0.00 0.00 0.00 96 1011.5
20260509112203 20 65 1.6 1.6 0.00 0.00 0.00 96 1011.4
20260509111700 20 65 1.6 1.6 0.00 0.00 0.00 96 1011.5
20260509111157 20 65 1.6 1.6 0.00 0.00 0.00 96 1011.4
20260509110654 20 64 1.6 1.6 0.00 0.00 0.00 96 1011.0
20260509110151 20 65 1.6 1.6 0.00 0.00 0.00 96 1011.2
20260509105650 20 66 3.2 3.2 0.00 0.00 0.00 96 1010.7
20260509105147 20 86 3.2 3.2 0.00 0.00 0.00 96 1010.7
20260509104644 20 116 3.2 3.2 0.00 0.00 0.00 96 1010.6
20260509104141 20 105 1.6 1.6 0.00 0.00 0.00 95 1010.5
20260509103639 20 106 1.6 1.6 0.00 0.00 0.00 95 1010.7
20260509103136 20 165 3.2 4.8 0.00 0.00 0.00 95 1010.3
20260509102634 20 153 1.6 3.2 0.00 0.00 0.00 95 1010.3
20260509102131 20 174 3.2 3.2 0.00 0.00 0.00 95 1010.3
20260509101627 20 163 4.8 4.8 0.00 0.00 0.00 95 1010.3
20260509101124 20 184 4.8 4.8 0.00 0.00 0.00 95 1010.4
20260509100621 20 201 6.4 8.0 0.00 0.00 0.00 95 1010.2
20260509100118 20 196 4.8 4.8 0.00 0.00 0.00 95 1010.4
20260509095614 20 140 0.0 1.6 0.00 0.00 0.00 95 1010.1
20260509095112 20 140 1.6 1.6 0.00 0.00 0.00 95 1010.3
20260509094608 20 156 6.4 8.0 0.00 0.00 0.00 95 1009.9
20260509094106 20 122 4.8 4.8 0.00 0.00 0.00 95 1009.6
20260509093604 20 146 6.4 9.7 0.00 0.00 0.00 95 1009.7
20260509093101 20 92 6.4 9.7 0.00 0.00 0.00 95 1010.1
20260509092558 20 82 6.4 8.0 0.00 0.00 0.00 95 1009.9
20260509092057 20 79 6.4 9.7 0.00 0.00 0.00 95 1009.7
20260509091554 20 78 6.4 8.0 0.00 0.00 0.00 95 1009.9
20260509091051 20 110 6.4 8.0 0.00 0.00 0.00 95 1010.0
20260509090548 20 101 6.4 9.7 0.00 0.00 0.00 95 1009.9
20260509090046 20 87 8.0 9.7 0.00 0.00 0.00 94 1010.0
20260509085543 20 91 6.4 8.0 0.00 0.00 0.00 94 1010.1
20260509085038 20 96 6.4 8.0 0.00 0.00 0.00 94 1010.4
20260509084536 20 103 6.4 8.0 0.00 0.00 0.00 94 1010.4
20260509084033 20 99 4.8 4.8 0.00 0.00 0.00 94 1010.9
20260509083530 20 87 3.2 3.2 0.00 0.00 0.00 94 1011.1
20260509083027 20 95 4.8 4.8 0.00 0.00 0.00 94 1010.7
20260509082525 20 97 1.6 3.2 0.00 0.00 0.00 94 1011.1
20260509082021 20 117 3.2 3.2 0.00 0.00 0.00 94 1011.2
20260509081519 20 117 3.2 3.2 0.00 0.00 0.00 94 1011.1
20260509081015 20 117 3.2 3.2 0.00 0.00 0.00 94 1011.3
20260509080513 20 117 1.6 1.6 0.00 0.00 0.00 94 1010.9
20260509080011 20 119 3.2 3.2 0.00 0.00 0.00 93 1011.3
20260509075508 20 118 3.2 3.2 0.00 0.00 0.00 93 1011.6
20260509075006 20 185 1.6 1.6 0.00 0.00 0.00 94 1011.7
20260509074503 20 109 1.6 1.6 0.00 0.00 0.00 93 1011.8
20260509073959 20 136 3.2 3.2 0.00 0.00 0.00 93 1012.0
20260509073456 20 75 4.8 4.8 0.00 0.00 0.00 93 1012.1
20260509072952 20 67 3.2 3.2 0.00 0.00 0.00 93 1012.4
20260509072449 20 71 1.6 3.2 0.00 0.00 0.00 93 1012.5
20260509071946 20 42 3.2 3.2 0.00 0.00 0.00 93 1012.6
20260509071442 20 44 3.2 3.2 0.00 0.00 0.00 93 1012.4
20260509070940 20 64 1.6 1.6 0.00 0.00 0.00 93 1012.3
20260509070437 20 66 3.2 3.2 0.00 0.00 0.00 93 1012.1
20260509065932 20 80 0.0 1.6 0.00 0.00 0.00 93 1012.3
20260509065428 20 78 1.6 1.6 0.00 0.00 0.00 93 1012.2
20260509064925 20 86 4.8 4.8 0.00 0.00 0.00 93 1012.4
20260509064423 20 78 4.8 8.0 0.00 0.00 0.00 93 1012.2
20260509063920 20 88 4.8 8.0 0.00 0.00 0.00 93 1012.4
20260509063416 20 77 4.8 4.8 0.00 0.00 0.00 93 1012.0
20260509062913 20 99 4.8 4.8 0.00 0.00 0.00 93 1011.8
20260509062410 20 94 4.8 4.8 0.00 0.00 0.00 93 1012.0
20260509061908 20 83 4.8 4.8 0.00 0.00 0.00 93 1012.0
20260509061406 20 91 6.4 8.0 0.00 0.00 0.00 92 1012.1
20260509060902 20 94 3.2 3.2 0.00 0.00 0.00 92 1012.2
20260509060359 20 103 3.2 3.2 0.00 0.00 0.00 92 1011.8
20260509055855 20 134 1.6 3.2 0.00 0.00 0.00 91 1012.0
20260509055350 20 182 3.2 3.2 0.00 0.00 0.00 91 1012.2
20260509054847 20 179 1.6 1.6 0.00 0.00 0.00 91 1012.0
20260509054344 20 179 1.6 1.6 0.00 0.00 0.00 91 1012.2
20260509053842 20 179 0.0 0.0 0.00 0.00 0.00 91 1012.2
20260509053339 20 179 0.0 0.0 0.00 0.00 0.00 91 1012.1
20260509052837 20 195 3.2 3.2 0.00 0.00 0.00 91 1012.1
20260509052335 20 195 3.2 3.2 0.00 0.00 0.00 90 1012.3
20260509051832 20 153 1.6 1.6 0.00 0.00 0.00 91 1012.1
20260509051330 20 156 1.6 3.2 0.00 0.00 0.00 91 1011.8
20260509050826 20 203 3.2 3.2 0.00 0.00 0.00 91 1011.9
20260509050323 20 183 6.4 8.0 0.00 0.00 0.00 92 1011.7
20260509045820 20 198 11.3 11.3 0.00 0.48 0.48 92 1011.5
20260509045317 20 210 4.8 4.8 0.00 0.48 0.48 92 1011.7
20260509044814 20 121 0.0 0.0 0.00 0.48 0.48 92 1012.0
20260509044312 20 120 0.0 0.0 0.00 0.48 0.48 92 1012.0
20260509043808 20 120 0.0 1.6 0.00 0.48 0.48 92 1011.7
20260509043304 20 99 4.8 4.8 0.00 0.48 0.48 92 1011.5
20260509042800 20 119 6.4 9.7 0.00 0.48 0.48 91 1011.8
20260509042257 20 152 8.0 11.3 0.00 0.48 0.48 91 1011.6
20260509041753 20 162 4.8 4.8 0.00 0.48 0.48 90 1012.0
20260509041250 20 141 9.7 12.9 0.00 0.48 0.48 89 1011.6
20260509040749 20 133 8.0 11.3 0.00 0.48 0.48 88 1011.0
20260509040246 21 192 11.3 14.5 0.00 0.48 0.48 87 1011.0
20260509035742 21 177 14.5 16.1 0.00 0.48 0.48 86 1011.2
20260509035239 21 141 8.0 9.7 0.00 0.48 0.48 86 1011.7
20260509034736 21 166 6.4 8.0 0.00 0.48 0.48 86 1011.9
20260509034234 21 168 3.2 3.2 0.00 0.48 0.48 86 1012.0
20260509033731 21 51 1.6 1.6 0.00 0.48 0.48 86 1012.1
20260509033228 21 57 1.6 1.6 0.00 0.48 0.48 86 1012.1
20260509032725 21 68 1.6 3.2 0.00 0.48 0.48 86 1012.2
20260509032222 21 66 1.6 3.2 0.00 0.48 0.48 86 1012.3
20260509031720 21 54 3.2 3.2 0.00 0.48 0.48 86 1011.9
20260509031217 21 11 4.8 4.8 0.00 0.48 0.48 84 1011.6
20260509030715 21 130 1.6 1.6 0.00 0.48 0.48 83 1011.3
20260509030212 21 132 1.6 1.6 0.00 0.48 0.48 82 1011.2
20260509025708 21 133 1.6 1.6 0.00 0.48 0.48 81 1011.5
20260509025204 21 133 0.0 0.0 0.00 0.48 0.48 81 1011.6
20260509024659 21 134 0.0 0.0 0.00 0.48 0.48 80 1011.8
20260509024155 21 134 0.0 0.0 0.00 0.48 0.48 81 1011.7
20260509023654 21 134 1.6 1.6 0.00 0.48 0.48 81 1011.4
20260509023150 21 134 0.0 1.6 0.00 0.48 0.48 81 1011.4
20260509022646 21 133 0.0 1.6 0.00 0.48 0.48 81 1011.2
20260509022144 21 147 3.2 3.2 0.00 0.48 0.48 80 1011.0
20260509021641 21 145 3.2 3.2 0.00 0.48 0.48 80 1011.0
20260509021138 21 147 1.6 1.6 0.00 0.48 0.48 80 1010.6
20260509020637 21 170 1.6 3.2 0.00 0.48 0.48 80 1010.5
20260509020133 21 139 1.6 1.6 0.00 0.48 0.48 80 1010.4
20260509015632 21 122 1.6 1.6 0.00 0.48 0.48 79 1010.4
20260509015129 21 120 1.6 1.6 0.00 0.48 0.48 78 1010.3
20260509014625 21 128 0.0 0.0 0.00 0.48 0.48 77 1010.7
20260509014122 22 141 0.0 1.6 0.00 0.48 0.48 77 1010.5
20260509013619 22 184 3.2 3.2 0.00 0.48 0.48 76 1010.3
20260509013114 22 192 6.4 8.0 0.00 0.48 0.48 76 1010.4
20260509012612 22 168 4.8 8.0 0.00 0.48 0.48 76 1010.3
20260509012108 22 174 4.8 8.0 0.00 0.48 0.48 75 1010.2
20260509011606 22 164 6.4 8.0 0.00 0.48 0.48 75 1010.4
20260509011103 22 195 4.8 8.0 0.00 0.48 0.48 75 1010.4
20260509010601 22 159 6.4 8.0 0.00 0.48 0.48 75 1010.3
20260509010057 22 167 3.2 3.2 0.00 0.48 0.48 75 1010.3
20260509005555 22 155 6.4 9.7 0.00 0.48 0.48 75 1010.2
20260509005050 22 197 4.8 8.0 0.00 0.48 0.48 75 1010.0
20260509004547 22 131 1.6 1.6 0.00 0.48 0.48 75 1009.9
20260509004044 22 152 1.6 3.2 0.00 0.48 0.48 74 1009.8
20260509003542 23 180 6.4 8.0 0.00 0.48 0.48 73 1009.7
20260509003039 23 191 6.4 8.0 0.00 0.48 0.48 72 1009.8
20260509002537 23 159 9.7 11.3 0.00 0.48 0.48 72 1009.9
20260509002034 23 175 8.0 9.7 0.00 0.48 0.48 71 1009.9
20260509001531 23 187 8.0 9.7 0.00 0.48 0.48 71 1009.9
20260509001027 23 180 9.7 14.5 0.00 0.48 0.48 71 1009.9
20260509000526 23 185 6.4 8.0 0.00 0.48 0.48 71 1009.9
20260509000021 23 211 6.4 9.7 0.00 0.48 0.48 72 1009.9
20260508235520 23 142 8.0 9.7 0.00 0.48 0.48 71 1009.8
20260508235015 23 180 8.0 9.7 0.00 0.48 0.48 70 1010.0
20260508234513 23 192 9.7 9.7 0.00 0.48 0.48 69 1010.1
20260508234010 23 131 11.3 14.5 0.00 0.48 0.48 69 1009.9
20260508233509 24 180 8.0 14.5 0.00 0.48 0.48 69 1010.2
20260508233006 24 192 12.9 14.5 0.00 0.48 0.48 68 1010.0
20260508232503 24 160 12.9 14.5 0.00 0.48 0.48 68 1010.2
20260508232000 25 195 12.9 14.5 0.00 0.48 0.48 65 1010.4
20260508231457 25 170 11.3 11.3 0.00 0.48 0.48 64 1010.3
20260508230954 25 140 6.4 8.0 0.00 0.48 0.48 63 1010.1
20260508230451 25 164 8.0 11.3 0.00 0.48 0.48 63 1010.4
20260508225948 25 98 8.0 9.7 0.00 0.48 0.48 63 1010.2
20260508225444 25 136 6.4 9.7 0.00 0.48 0.48 63 1010.1
20260508224942 25 179 8.0 11.3 0.00 0.48 0.48 63 1010.1
20260508224439 25 169 11.3 12.9 0.00 0.48 0.48 65 1009.9
20260508223936 25 135 9.7 11.3 0.00 0.48 0.48 63 1010.0
20260508223434 25 173 8.0 9.7 0.00 0.48 0.48 62 1010.0
20260508222931 25 209 6.4 8.0 0.00 0.48 0.48 62 1010.2
20260508222429 25 187 11.3 11.3 0.00 0.48 0.48 62 1010.0
20260508221925 25 117 8.0 8.0 0.00 0.48 0.48 62 1009.7
20260508221421 25 131 6.4 8.0 0.00 0.48 0.48 61 1009.6
20260508220917 25 121 8.0 11.3 0.00 0.48 0.48 64 1009.7
20260508220414 25 161 11.3 11.3 0.00 0.48 0.48 61 1009.6
20260508215910 25 178 14.5 16.1 0.00 0.48 0.48 62 1009.9
20260508215407 25 175 12.9 14.5 0.00 0.48 0.48 60 1010.4
20260508214904 25 187 9.7 11.3 0.00 0.48 0.48 63 1010.5
20260508214402 25 187 11.3 14.5 0.00 0.48 0.48 63 1010.5
20260508213858 24 172 11.3 12.9 0.00 0.48 0.48 66 1010.6
20260508213355 23 179 11.3 11.3 0.00 0.48 0.48 67 1010.7
20260508212850 23 194 11.3 12.9 0.00 0.48 0.48 67 1011.0
20260508212347 23 172 8.0 11.3 0.00 0.48 0.48 67 1011.1
20260508211843 24 188 11.3 12.9 0.00 0.48 0.48 66 1011.1
20260508211339 24 207 11.3 12.9 0.00 0.48 0.48 67 1011.0
20260508210837 24 210 14.5 16.1 0.00 0.48 0.48 65 1011.4
20260508210333 24 181 8.0 9.7 0.00 0.48 0.48 66 1011.6
20260508205830 24 188 8.0 9.7 0.00 0.48 0.48 67 1011.2
20260508205326 24 156 14.5 16.1 0.00 0.48 0.48 65 1011.4
20260508204822 24 181 9.7 11.3 0.00 0.48 0.48 65 1011.6
20260508204319 25 150 8.0 9.7 0.00 0.48 0.48 64 1011.6
20260508203815 25 143 6.4 9.7 0.00 0.48 0.48 62 1011.6
20260508203312 25 160 4.8 4.8 0.00 0.48 0.48 60 1011.6
20260508202807 25 205 6.4 8.0 0.00 0.48 0.48 60 1011.7
20260508202307 25 199 4.8 4.8 0.00 0.48 0.48 59 1011.9
20260508201802 25 215 6.4 8.0 0.00 0.48 0.48 61 1012.0
20260508201259 25 157 6.4 8.0 0.00 0.48 0.48 60 1012.0
20260508200755 25 209 8.0 11.3 0.00 0.48 0.48 58 1011.9
20260508200252 25 188 9.7 11.3 0.00 0.48 0.48 62 1012.0
20260508195748 25 110 4.8 4.8 0.00 0.48 0.48 61 1012.0
20260508195244 25 162 6.4 8.0 0.00 0.48 0.48 62 1012.0
20260508194741 25 203 6.4 8.0 0.00 0.48 0.48 63 1012.1
20260508194238 24 173 6.4 9.7 0.00 0.48 0.48 62 1012.2
20260508193735 24 188 9.7 11.3 0.00 0.48 0.48 62 1012.3
20260508193232 24 164 6.4 8.0 0.00 0.48 0.48 64 1012.0
20260508192728 24 135 8.0 11.3 0.00 0.48 0.48 61 1012.3
20260508192225 25 132 11.3 12.9 0.00 0.48 0.48 59 1012.3
20260508191723 25 164 6.4 8.0 0.00 0.48 0.48 58 1012.1
20260508191220 25 183 11.3 14.5 0.00 0.48 0.48 61 1012.5
20260508190717 25 165 4.8 4.8 0.00 0.48 0.48 59 1012.5
20260508190213 25 163 9.7 12.9 0.00 0.48 0.48 58 1012.6
20260508185709 25 182 12.9 14.5 0.00 0.48 0.48 57 1012.5
20260508185208 25 177 12.9 16.1 0.00 0.48 0.48 58 1012.6
20260508184705 25 172 11.3 12.9 0.00 0.48 0.48 60 1012.7
20260508184202 25 167 8.0 11.3 0.00 0.48 0.48 59 1012.7
20260508183658 25 119 8.0 11.3 0.00 0.48 0.48 58 1012.8
20260508183154 25 137 11.3 12.9 0.00 0.48 0.48 56 1012.9
20260508182650 24 69 3.2 3.2 0.00 0.48 0.48 60 1013.0
20260508182147 24 118 9.7 11.3 0.00 0.48 0.48 58 1013.1
20260508181642 24 114 12.9 16.1 0.00 0.48 0.48 64 1013.4
20260508181140 24 85 4.8 4.8 0.00 0.48 0.48 59 1013.5
20260508180636 23 120 4.8 4.8 0.00 0.48 0.48 62 1013.4
20260508180133 23 140 4.8 4.8 0.00 0.48 0.48 66 1013.6
20260508175630 22 119 6.4 8.0 0.00 0.48 0.48 65 1013.6
20260508175127 23 190 8.0 9.7 0.00 0.48 0.48 63 1013.8
20260508174624 23 159 4.8 4.8 0.00 0.48 0.48 64 1013.9
20260508174121 23 201 11.3 12.9 0.00 0.48 0.48 63 1014.1
20260508173618 23 141 6.4 8.0 0.00 0.48 0.48 63 1014.1
20260508173114 23 155 8.0 8.0 0.00 0.48 0.48 63 1014.2
20260508172611 23 155 4.8 8.0 0.00 0.48 0.48 67 1014.5
20260508172108 22 181 8.0 9.7 0.00 0.48 0.48 66 1014.3
20260508171604 22 183 8.0 9.7 0.00 0.48 0.48 63 1014.6
20260508171101 22 192 11.3 14.5 0.00 0.48 0.48 65 1014.7
20260508170558 22 204 11.3 12.9 0.00 0.48 0.48 70 1014.8
20260508170055 22 180 6.4 8.0 0.00 0.48 0.48 68 1014.6
20260508165552 22 230 9.7 11.3 0.00 0.48 0.48 66 1015.0
20260508165049 22 198 11.3 12.9 0.00 0.48 0.48 67 1015.2
20260508164546 22 199 4.8 9.7 0.00 0.48 0.48 65 1015.0
20260508164042 22 215 9.7 11.3 0.00 0.48 0.48 68 1015.2
20260508163540 22 152 8.0 11.3 0.00 0.48 0.48 70 1015.2
20260508163037 22 192 8.0 9.7 0.00 0.48 0.48 70 1015.3
20260508162533 21 199 6.4 8.0 0.00 0.48 0.48 71 1015.1
20260508162031 21 196 12.9 14.5 0.00 0.48 0.48 71 1015.5
20260508161527 21 196 9.7 11.3 0.00 0.48 0.48 69 1015.8
20260508161025 21 175 4.8 4.8 0.00 0.48 0.48 73 1015.5
20260508160523 21 139 3.2 4.8 0.00 0.48 0.48 73 1015.4
20260508160020 21 191 14.5 17.7 0.00 0.48 0.48 72 1015.5
20260508155517 21 149 8.0 11.3 0.00 0.48 0.48 75 1015.4
20260508155014 20 135 3.2 3.2 0.00 0.48 0.48 82 1015.4
20260508154511 20 120 4.8 4.8 0.00 0.48 0.48 82 1015.6
20260508154008 20 145 0.0 0.0 0.00 0.48 0.48 80 1015.9
20260508153504 19 128 3.2 3.2 0.00 0.48 0.48 82 1015.8
20260508153000 18 114 6.4 8.0 0.00 0.48 0.48 84 1015.5
20260508152458 18 124 6.4 9.7 0.00 0.48 0.48 83 1015.5
20260508151954 18 80 8.0 8.0 0.00 0.48 0.48 83 1015.4
20260508151450 18 83 1.6 3.2 0.00 0.48 0.48 84 1015.5
20260508150947 18 101 6.4 9.7 0.00 0.48 0.48 83 1015.6
20260508150444 18 99 6.4 8.0 0.00 0.48 0.48 83 1015.9
20260508145939 18 56 4.8 8.0 0.00 0.48 0.48 85 1016.0
20260508145436 18 100 6.4 8.0 0.00 0.48 0.48 84 1015.9
20260508144933 17 80 4.8 4.8 0.00 0.48 0.48 86 1015.9
20260508144431 17 84 6.4 8.0 0.00 0.48 0.48 88 1016.0
20260508143928 17 88 4.8 4.8 0.00 0.48 0.48 91 1016.2
20260508143426 17 49 3.2 3.2 0.00 0.48 0.48 91 1016.1
20260508142922 17 58 4.8 4.8 0.00 0.48 0.48 93 1016.5
20260508142419 16 64 3.2 3.2 0.00 0.48 0.48 94 1016.5
20260508141915 16 42 3.2 3.2 0.00 0.48 0.48 94 1016.6
20260508141412 16 61 1.6 3.2 0.00 0.48 0.48 94 1016.5
20260508140910 16 86 1.6 3.2 0.00 0.48 0.48 95 1016.2
20260508140406 16 82 0.0 0.0 0.00 0.48 0.48 95 1016.2
20260508135902 16 87 4.8 4.8 0.00 0.48 0.48 95 1016.0